GW6089 Weather Reports


Display with metric or nautical units.
time (UTC)temp
F
wind
direction
speed
MPH
gust
MPH
rain 1hr
in
rain 24hr
in
rain mn
in
humidity
%
barometer
mb
20260505014305 74 292 2.0 6.0 0.00 0.01 0.00 87 1013.5
20260505014221 74 289 2.0 6.0 0.00 0.01 0.00 87 1013.6
20260505014106 74 283 2.0 6.0 0.00 0.01 0.00 87 1013.7
20260505013906 74 280 2.0 6.0 0.00 0.01 0.00 87 1013.7
20260505013806 74 279 2.0 6.0 0.00 0.01 0.00 87 1013.6
20260505013706 74 280 2.0 6.0 0.00 0.01 0.00 87 1013.7
20260505013606 74 282 2.0 6.0 0.00 0.01 0.00 88 1013.6
20260505013505 74 279 2.0 6.0 0.00 0.01 0.00 88 1013.8
20260505013405 74 274 2.0 6.0 0.00 0.01 0.00 88 1013.7
20260505013305 74 269 2.0 6.0 0.00 0.01 0.00 88 1013.7
20260505013205 74 266 1.0 4.0 0.00 0.01 0.00 88 1013.7
20260505013119 74 264 1.0 4.0 0.00 0.01 0.00 88 1013.7
20260505013105 74 263 1.0 4.0 0.00 0.01 0.00 88 1013.7
20260505013005 74 264 1.0 4.0 0.00 0.01 0.00 88 1013.7
20260505012806 74 262 1.0 4.0 0.00 0.01 0.00 88 1013.7
20260505012704 74 262 1.0 3.0 0.00 0.01 0.00 88 1013.8
20260505012606 74 265 1.0 3.0 0.00 0.01 0.00 88 1013.8
20260505012506 74 269 1.0 3.0 0.00 0.01 0.00 88 1013.9
20260505012419 74 273 1.0 4.0 0.00 0.01 0.00 88 1014.0
20260505012404 74 274 1.0 4.0 0.00 0.01 0.00 88 1014.0
20260505012305 74 275 1.0 4.0 0.00 0.01 0.00 88 1013.9
20260505012105 74 278 1.0 4.0 0.00 0.01 0.00 88 1014.0
20260505012005 74 276 1.0 4.0 0.00 0.01 0.00 88 1013.9
20260505011905 74 273 1.0 4.0 0.00 0.01 0.00 89 1014.1
20260505011720 74 275 1.0 4.0 0.00 0.01 0.00 89 1013.9
20260505011706 74 276 1.0 4.0 0.00 0.01 0.00 89 1013.9
20260505011618 74 277 1.0 4.0 0.00 0.01 0.00 89 1013.9
20260505011606 74 278 1.0 4.0 0.00 0.01 0.00 89 1013.9
20260505011306 74 281 2.0 4.0 0.00 0.01 0.00 89 1014.1
20260505011206 73 280 2.0 4.0 0.00 0.01 0.00 89 1014.0
20260505011107 73 282 2.0 4.0 0.00 0.01 0.00 89 1014.2
20260505011005 73 281 2.0 4.0 0.00 0.01 0.00 89 1014.1
20260505010906 73 288 2.0 4.0 0.00 0.01 0.00 89 1014.3
20260505010821 73 287 2.0 4.0 0.00 0.01 0.00 89 1014.2
20260505010806 73 286 2.0 4.0 0.00 0.01 0.00 89 1014.2
20260505010706 73 283 2.0 4.0 0.00 0.01 0.00 89 1014.2
20260505010505 73 281 2.0 4.0 0.00 0.01 0.00 89 1014.3
20260505010421 73 282 2.0 4.0 0.00 0.01 0.00 89 1014.2
20260505010405 73 283 2.0 4.0 0.00 0.01 0.00 89 1014.2
20260505010320 73 285 2.0 6.0 0.00 0.01 0.00 89 1014.2
20260505010306 73 287 2.0 6.0 0.00 0.01 0.00 89 1014.2
20260505010121 73 303 2.0 9.0 0.00 0.01 0.00 90 1014.4
20260505010006 73 303 2.0 9.0 0.00 0.01 0.00 90 1014.4
20260505005806 73 302 2.0 9.0 0.00 0.01 0.00 90 1014.2
20260505005705 72 308 2.0 9.0 0.00 0.01 0.00 90 1014.1
20260505005620 72 312 2.0 9.0 0.00 0.01 0.00 90 1014.3
20260505005605 72 314 2.0 9.0 0.00 0.01 0.00 90 1014.3
20260505005505 72 319 2.0 9.0 0.00 0.01 0.00 90 1014.2
20260505005306 72 301 1.0 9.0 0.00 0.01 0.00 90 1014.1
20260505005205 72 271 1.0 6.0 0.00 0.01 0.00 90 1014.2
20260505005105 72 260 1.0 6.0 0.00 0.01 0.00 90 1014.1
20260505005006 72 256 1.0 6.0 0.00 0.01 0.00 90 1014.2
20260505004906 72 252 1.0 6.0 0.00 0.01 0.00 90 1014.2
20260505004805 72 248 1.0 6.0 0.00 0.01 0.00 90 1014.4
20260505004705 72 254 1.0 6.0 0.00 0.01 0.00 90 1014.2
20260505004604 72 255 1.0 6.0 0.00 0.01 0.00 90 1014.2
20260505004504 72 259 1.0 6.0 0.00 0.01 0.00 91 1014.4
20260505004406 71 266 1.0 6.0 0.00 0.01 0.00 91 1014.0
20260505004306 71 272 1.0 6.0 0.00 0.01 0.00 91 1014.3
20260505004206 71 287 1.0 3.0 0.00 0.01 0.00 91 1014.1
20260505004105 71 301 1.0 3.0 0.00 0.01 0.00 91 1014.3
20260505004006 71 306 1.0 3.0 0.00 0.01 0.00 91 1014.3
20260505003906 71 310 1.0 4.0 0.00 0.01 0.00 91 1014.4
20260505003819 71 311 1.0 4.0 0.00 0.01 0.00 91 1014.4
20260505003806 71 311 1.0 4.0 0.00 0.01 0.00 91 1014.4
20260505003707 71 310 1.0 4.0 0.00 0.01 0.00 91 1014.3
20260505003618 71 308 1.0 4.0 0.00 0.01 0.00 91 1014.2
20260505003505 71 301 1.0 4.0 0.00 0.01 0.00 91 1014.1
20260505003306 71 296 1.0 4.0 0.00 0.01 0.00 91 1014.3
20260505003206 71 291 1.0 4.0 0.00 0.01 0.00 91 1014.4
20260505003106 71 283 1.0 4.0 0.00 0.01 0.00 91 1014.5
20260505003006 71 271 1.0 4.0 0.00 0.01 0.00 91 1014.4
20260505002918 71 265 1.0 4.0 0.00 0.01 0.00 91 1014.5
20260505002905 71 263 1.0 4.0 0.00 0.01 0.00 91 1014.5
20260505002819 71 255 1.0 3.0 0.00 0.01 0.00 91 1014.6
20260505002805 71 254 1.0 3.0 0.00 0.01 0.00 91 1014.6
20260505002505 70 243 1.0 6.0 0.00 0.01 0.00 91 1014.5
20260505002419 70 245 2.0 6.0 0.00 0.01 0.00 91 1014.5
20260505002405 70 247 2.0 6.0 0.00 0.01 0.00 91 1014.5
20260505002304 70 241 2.0 6.0 0.00 0.01 0.00 91 1014.6
20260505002106 70 233 2.0 6.0 0.00 0.01 0.00 91 1014.7
20260505002004 70 225 3.0 7.0 0.00 0.01 0.00 91 1014.7
20260505001906 70 223 2.0 7.0 0.00 0.01 0.00 91 1014.7
20260505001806 70 222 2.0 7.0 0.00 0.01 0.00 91 1014.7
20260505001706 70 221 2.0 7.0 0.00 0.01 0.00 91 1014.7
20260505001605 70 224 2.0 7.0 0.00 0.01 0.00 91 1014.6
20260505001406 70 207 1.0 7.0 0.00 0.01 0.00 91 1014.8
20260505001305 70 227 1.0 7.0 0.00 0.01 0.00 92 1014.8
20260505001205 70 292 1.0 7.0 0.00 0.01 0.00 92 1014.5
20260505001105 70 329 1.0 7.0 0.00 0.01 0.00 92 1014.9
20260505001005 70 331 1.0 3.0 0.00 0.01 0.00 92 1015.0
20260505000906 70 330 1.0 3.0 0.00 0.01 0.00 92 1014.9
20260505000806 70 320 1.0 3.0 0.00 0.01 0.00 92 1014.8
20260505000704 70 308 1.0 3.0 0.00 0.01 0.00 92 1014.8
20260505000606 70 289 1.0 3.0 0.00 0.01 0.00 92 1014.9
20260505000520 70 292 1.0 3.0 0.00 0.01 0.00 92 1014.7
20260505000506 70 291 1.0 3.0 0.00 0.01 0.00 92 1014.7
20260505000420 70 294 1.0 3.0 0.00 0.01 0.00 92 1014.9
20260505000405 70 296 1.0 3.0 0.00 0.01 0.00 92 1014.9
20260505000106 69 266 1.0 4.0 0.00 0.01 0.00 92 1014.8
20260505000006 69 254 1.0 4.0 0.00 0.01 0.00 92 1014.8
20260504235905 69 257 1.0 4.0 0.00 0.01 0.00 92 1014.8
20260504235805 69 257 2.0 4.0 0.00 0.01 0.00 92 1014.9
20260504235706 69 252 2.0 4.0 0.00 0.01 0.00 92 1015.1
20260504235606 69 243 2.0 4.0 0.00 0.01 0.00 92 1015.0
20260504235507 69 233 2.0 4.0 0.00 0.01 0.00 92 1014.8
20260504235406 69 223 2.0 4.0 0.00 0.01 0.00 92 1014.8
20260504235306 69 214 2.0 6.0 0.00 0.01 0.00 92 1015.0
20260504235205 69 212 2.0 6.0 0.00 0.01 0.00 92 1014.9
20260504235106 69 211 2.0 6.0 0.00 0.01 0.00 92 1015.0
20260504235005 69 206 2.0 6.0 0.00 0.01 0.00 92 1014.9
20260504234906 69 201 2.0 6.0 0.00 0.01 0.00 92 1015.0
20260504234806 69 200 2.0 6.0 0.00 0.01 0.00 92 1014.8
20260504234706 69 201 2.0 6.0 0.00 0.01 0.00 92 1014.8
20260504234620 69 202 2.0 6.0 0.00 0.01 0.00 92 1014.7
20260504234606 69 202 2.0 6.0 0.00 0.01 0.00 92 1014.7
20260504234505 69 202 2.0 6.0 0.00 0.01 0.00 92 1014.9
20260504234305 69 224 1.0 6.0 0.00 0.01 0.00 92 1014.9
20260504234206 69 233 1.0 4.0 0.00 0.01 0.00 92 1015.1
20260504234105 68 241 1.0 4.0 0.00 0.01 0.00 92 1014.6
20260504234004 68 245 1.0 4.0 0.00 0.01 0.00 92 1015.1
20260504233920 68 254 1.0 4.0 0.00 0.01 0.00 92 1014.8
20260504233906 68 255 1.0 4.0 0.00 0.01 0.00 92 1014.8
20260504233820 68 260 1.0 4.0 0.00 0.01 0.00 92 1015.0
20260504233806 68 261 1.0 4.0 0.00 0.01 0.00 92 1015.0
20260504233507 68 288 2.0 6.0 0.00 0.01 0.00 92 1014.9
20260504233406 68 284 2.0 6.0 0.00 0.01 0.00 92 1014.8
20260504233320 68 280 2.0 6.0 0.00 0.01 0.00 92 1015.0
20260504233305 68 279 2.0 6.0 0.00 0.01 0.00 92 1015.0
20260504233205 68 279 2.0 6.0 0.00 0.01 0.00 92 1014.9
20260504233005 68 287 1.0 6.0 0.00 0.01 0.00 92 1015.0
20260504232906 68 287 1.0 6.0 0.00 0.01 0.00 92 1014.7
20260504232804 68 284 1.0 6.0 0.00 0.01 0.00 92 1014.9
20260504232705 68 281 1.0 6.0 0.00 0.01 0.00 93 1015.1
20260504232605 68 277 1.0 6.0 0.00 0.01 0.00 93 1015.1
20260504232505 68 272 1.0 6.0 0.00 0.01 0.00 93 1015.0
20260504232405 68 273 1.0 3.0 0.00 0.01 0.00 93 1015.0
20260504232305 67 274 1.0 2.0 0.00 0.01 0.00 93 1014.9
20260504232205 67 274 1.0 2.0 0.00 0.01 0.00 93 1014.9
20260504232118 67 274 1.0 3.0 0.00 0.01 0.00 93 1014.8
20260504232105 67 274 1.0 3.0 0.00 0.01 0.00 93 1014.8
20260504232005 67 272 1.0 3.0 0.00 0.01 0.00 93 1014.8
20260504231820 67 269 1.0 3.0 0.00 0.01 0.00 93 1014.9
20260504231805 67 269 1.0 3.0 0.00 0.01 0.00 93 1014.9
20260504231719 67 267 1.0 3.0 0.00 0.01 0.00 93 1015.1
20260504231705 67 267 1.0 3.0 0.00 0.01 0.00 93 1015.1
20260504231620 67 267 1.0 3.0 0.00 0.01 0.00 93 1014.9
20260504231305 67 263 1.0 3.0 0.00 0.01 0.00 93 1015.0
20260504231205 67 262 1.0 3.0 0.00 0.01 0.00 93 1014.9
20260504231105 67 260 1.0 3.0 0.00 0.01 0.00 93 1014.9
20260504231005 67 259 1.0 3.0 0.00 0.01 0.00 93 1014.8
20260504230905 67 259 1.0 2.0 0.00 0.01 0.00 93 1015.1
20260504230805 67 259 0.0 2.0 0.00 0.01 0.00 93 1014.9
20260504230705 67 259 0.0 1.0 0.00 0.01 0.00 93 1014.8
20260504230605 67 259 0.0 1.0 0.00 0.01 0.00 93 1015.1
20260504230505 67 259 0.0 1.0 0.00 0.01 0.00 93 1014.9
20260504230405 66 259 0.0 1.0 0.00 0.01 0.00 93 1014.9
20260504230306 66 259 0.0 1.0 0.00 0.01 0.00 93 1015.1
20260504230206 66 259 0.0 1.0 0.00 0.01 0.00 93 1015.0
20260504230121 66 259 0.0 1.0 0.00 0.01 0.00 93 1014.9
20260504230105 66 259 0.0 1.0 0.00 0.01 0.00 93 1014.9
20260504230019 66 259 0.0 1.0 0.00 0.01 0.00 93 1015.0
20260504230005 66 259 0.0 1.0 0.00 0.01 0.00 93 1015.0
20260504225705 66 259 0.0 1.0 0.00 0.01 0.01 93 1014.8
20260504225621 66 259 0.0 1.0 0.00 0.01 0.01 93 1015.0
20260504225605 66 259 0.0 1.0 0.00 0.01 0.01 93 1015.0
20260504225520 66 259 0.0 1.0 0.00 0.01 0.01 93 1015.0
20260504225506 66 258 0.0 1.0 0.00 0.01 0.01 93 1015.0
20260504225205 66 254 0.0 3.0 0.00 0.01 0.01 93 1015.0
20260504225105 66 251 0.0 3.0 0.00 0.01 0.01 93 1014.8
20260504225005 66 246 0.0 3.0 0.00 0.01 0.01 93 1014.9
20260504224905 66 243 1.0 3.0 0.00 0.01 0.01 93 1014.9
20260504224806 66 239 1.0 3.0 0.00 0.01 0.01 93 1014.8
20260504224705 66 236 1.0 3.0 0.00 0.01 0.01 93 1014.9
20260504224605 66 235 1.0 3.0 0.00 0.01 0.01 93 1014.7
20260504224504 66 234 1.0 3.0 0.01 0.01 0.01 93 1014.8
20260504224405 66 232 1.0 3.0 0.01 0.01 0.01 93 1015.0
20260504224306 66 230 1.0 3.0 0.01 0.01 0.01 93 1015.0
20260504224204 66 221 1.0 3.0 0.01 0.01 0.01 93 1015.0
20260504224104 66 216 1.0 4.0 0.01 0.01 0.01 93 1015.0
20260504224005 66 213 1.0 4.0 0.01 0.01 0.01 93 1014.9
20260504223905 66 209 1.0 4.0 0.01 0.01 0.01 93 1015.0
20260504223805 66 204 1.0 4.0 0.01 0.01 0.01 93 1015.1
20260504223705 65 195 1.0 4.0 0.01 0.01 0.01 93 1015.1
20260504223605 66 193 1.0 4.0 0.01 0.01 0.01 93 1015.1
20260504223505 66 196 1.0 4.0 0.01 0.01 0.01 93 1015.3
20260504223405 66 197 1.0 4.0 0.01 0.01 0.01 93 1015.1
20260504223305 66 198 1.0 4.0 0.01 0.01 0.01 93 1015.1
20260504223205 65 202 1.0 4.0 0.01 0.01 0.01 93 1015.1
20260504223120 65 205 1.0 4.0 0.01 0.01 0.01 93 1015.1
20260504223105 65 205 1.0 3.0 0.01 0.01 0.01 93 1015.1
20260504223004 65 207 1.0 3.0 0.01 0.01 0.01 93 1014.9
20260504222806 65 214 1.0 3.0 0.01 0.01 0.01 93 1015.1
20260504222706 65 218 1.0 3.0 0.01 0.01 0.01 93 1015.2
20260504222606 65 221 1.0 3.0 0.01 0.01 0.01 93 1015.2
20260504222506 65 224 1.0 4.0 0.01 0.01 0.01 93 1015.2
20260504222405 65 227 2.0 4.0 0.01 0.01 0.01 93 1015.3
20260504222321 65 229 2.0 4.0 0.01 0.01 0.01 93 1015.1
20260504222305 65 229 2.0 4.0 0.01 0.01 0.01 93 1015.1
20260504222205 65 231 2.0 4.0 0.01 0.01 0.01 93 1014.8
20260504222005 65 230 2.0 4.0 0.01 0.01 0.01 93 1015.1
20260504221905 65 230 2.0 4.0 0.01 0.01 0.01 93 1015.0
20260504221806 65 232 2.0 4.0 0.01 0.01 0.01 93 1015.1
20260504221719 65 234 2.0 4.0 0.01 0.01 0.01 93 1015.0
20260504221706 65 235 1.0 4.0 0.01 0.01 0.01 93 1015.0
20260504221606 65 239 1.0 4.0 0.01 0.01 0.01 93 1015.1
20260504221405 65 238 1.0 3.0 0.01 0.01 0.01 93 1015.0
20260504221306 65 238 1.0 3.0 0.01 0.01 0.01 93 1015.0
20260504221205 65 240 1.0 3.0 0.01 0.01 0.01 93 1015.0
20260504221105 65 248 1.0 3.0 0.01 0.01 0.01 93 1015.1
20260504221004 65 248 1.0 3.0 0.01 0.01 0.01 93 1015.1
20260504220906 65 246 1.0 3.0 0.01 0.01 0.01 93 1015.0
20260504220806 65 245 1.0 3.0 0.01 0.01 0.01 93 1015.0
20260504220704 65 244 1.0 3.0 0.01 0.01 0.01 93 1015.0
20260504220606 65 243 1.0 3.0 0.01 0.01 0.01 93 1014.9
20260504220505 65 240 1.0 3.0 0.01 0.01 0.01 93 1014.8
20260504220406 65 239 1.0 3.0 0.01 0.01 0.01 93 1014.9
20260504220307 65 237 1.0 3.0 0.01 0.01 0.01 93 1015.0
20260504220205 65 232 1.0 3.0 0.01 0.01 0.01 93 1015.1
20260504220104 65 224 0.0 2.0 0.01 0.01 0.01 93 1015.0
20260504220005 65 221 0.0 2.0 0.01 0.01 0.01 93 1015.2
20260504215919 65 219 0.0 2.0 0.01 0.01 0.01 93 1015.0
20260504215904 65 218 0.0 1.0 0.01 0.01 0.01 93 1015.0
20260504215806 65 217 0.0 1.0 0.01 0.01 0.01 93 1014.9
20260504215606 65 217 0.0 1.0 0.01 0.01 0.01 93 1015.0
20260504215505 65 217 0.0 1.0 0.01 0.01 0.01 93 1015.3
20260504215405 65 217 0.0 1.0 0.01 0.01 0.01 93 1015.0
20260504215319 65 217 0.0 1.0 0.01 0.01 0.01 93 1014.9
20260504215305 65 217 0.0 1.0 0.01 0.01 0.01 93 1014.9
20260504215005 65 217 0.0 1.0 0.01 0.01 0.01 93 1015.1
20260504214905 64 217 0.0 1.0 0.01 0.01 0.01 93 1015.2
20260504214805 64 217 0.0 1.0 0.01 0.01 0.01 93 1015.0
20260504214706 64 217 0.0 1.0 0.01 0.01 0.01 93 1015.0
20260504214605 64 217 0.0 1.0 0.01 0.01 0.01 93 1015.2
20260504214505 64 217 0.0 1.0 0.00 0.00 0.00 93 1014.9
20260504214405 64 217 0.0 1.0 0.00 0.00 0.00 93 1014.9
20260504214305 64 217 0.0 1.0 0.00 0.00 0.00 93 1014.8
20260504214206 64 217 0.0 1.0 0.00 0.00 0.00 93 1015.0
20260504214120 64 217 0.0 1.0 0.00 0.00 0.00 93 1015.0
20260504214106 64 217 0.0 1.0 0.00 0.00 0.00 93 1015.0
20260504214006 64 217 0.0 1.0 0.00 0.00 0.00 93 1015.0
20260504213921 64 217 0.0 1.0 0.00 0.00 0.00 93 1014.8
20260504213820 64 217 0.0 1.0 0.00 0.00 0.00 93 1015.2
20260504213805 64 217 0.0 1.0 0.00 0.00 0.00 93 1015.2
20260504213505 64 0 0.0 0.0 0.00 0.00 0.00 93 1015.1
20260504213406 64 0 0.0 0.0 0.00 0.00 0.00 93 1014.8
20260504213321 64 0 0.0 0.0 0.00 0.00 0.00 93 1015.2
20260504213305 64 0 0.0 0.0 0.00 0.00 0.00 93 1015.2
20260504213206 64 0 0.0 0.0 0.00 0.00 0.00 93 1015.2
20260504213006 64 217 0.0 1.0 0.00 0.00 0.00 93 1014.8
20260504212904 64 217 0.0 2.0 0.00 0.00 0.00 93 1014.9
20260504212806 64 217 0.0 2.0 0.00 0.00 0.00 93 1014.9
20260504212706 64 216 0.0 2.0 0.00 0.00 0.00 93 1015.0
20260504212619 64 216 0.0 2.0 0.00 0.00 0.00 93 1014.7
20260504212606 64 216 0.0 2.0 0.00 0.00 0.00 93 1014.7
20260504212506 64 216 0.0 2.0 0.00 0.00 0.00 93 1014.8
20260504212420 64 216 0.0 2.0 0.00 0.00 0.00 93 1014.8
20260504212306 64 216 0.0 2.0 0.00 0.02 0.00 92 1014.8
20260504212106 64 215 0.0 2.0 0.00 0.02 0.00 92 1014.9
20260504212006 64 214 0.0 2.0 0.00 0.02 0.00 92 1014.8
20260504211906 64 212 0.0 1.0 0.00 0.02 0.00 92 1014.7
20260504211804 64 211 0.0 1.0 0.00 0.02 0.00 92 1014.4
20260504211706 64 210 0.0 1.0 0.00 0.02 0.00 92 1014.7
20260504211506 64 207 0.0 1.0 0.00 0.02 0.00 92 1014.7
20260504211406 64 206 0.0 1.0 0.00 0.02 0.00 92 1014.4
20260504211306 64 205 0.0 1.0 0.00 0.02 0.00 92 1014.6
20260504211204 64 204 0.0 1.0 0.00 0.02 0.00 92 1014.8
20260504211120 64 199 0.0 1.0 0.00 0.02 0.00 92 1014.7
20260504211106 64 199 0.0 1.0 0.00 0.02 0.00 92 1014.7
20260504211005 64 199 0.0 2.0 0.00 0.02 0.00 92 1014.6
20260504210921 64 200 0.0 2.0 0.00 0.02 0.00 92 1014.6
20260504210805 64 200 0.0 2.0 0.00 0.02 0.00 92 1014.8
20260504210606 64 200 0.0 2.0 0.00 0.02 0.00 92 1015.0
20260504210504 64 201 0.0 2.0 0.00 0.02 0.00 92 1014.7
20260504210406 64 203 0.0 2.0 0.00 0.02 0.00 92 1014.7
20260504210306 64 203 0.0 2.0 0.00 0.02 0.00 92 1014.5
20260504210205 64 205 0.0 2.0 0.00 0.02 0.00 92 1014.8
20260504210105 64 208 0.0 2.0 0.00 0.02 0.00 92 1014.6
20260504210020 64 210 0.0 2.0 0.00 0.02 0.00 92 1014.8
20260504210006 64 211 0.0 2.0 0.00 0.02 0.00 92 1014.8
20260504205905 64 217 0.0 1.0 0.00 0.02 0.00 92 1014.5
20260504205621 64 217 0.0 1.0 0.00 0.02 0.00 92 1014.5
20260504205606 64 217 0.0 1.0 0.00 0.02 0.00 92 1014.5
20260504205506 64 217 0.0 2.0 0.00 0.02 0.00 92 1014.5
20260504205306 64 217 0.0 2.0 0.00 0.02 0.00 92 1014.6
20260504205205 64 217 0.0 2.0 0.00 0.02 0.00 92 1014.3
20260504205106 64 217 0.0 2.0 0.00 0.02 0.00 92 1014.6
20260504205005 64 217 0.0 2.0 0.00 0.02 0.00 92 1014.7
20260504204805 64 216 0.0 2.0 0.00 0.02 0.00 92 1014.5
20260504204705 64 216 0.0 2.0 0.00 0.02 0.00 92 1014.6
20260504204606 64 216 0.0 2.0 0.00 0.02 0.00 92 1014.5
20260504204505 64 216 0.0 1.0 0.00 0.02 0.00 92 1014.7
20260504204406 64 209 0.0 1.0 0.00 0.02 0.00 92 1014.5
20260504204305 64 190 0.0 1.0 0.00 0.02 0.00 92 1014.4
20260504204205 64 185 0.0 1.0 0.00 0.02 0.00 92 1014.5
20260504204105 64 170 0.0 1.0 0.00 0.02 0.00 92 1014.4
20260504204020 64 162 0.0 1.0 0.00 0.02 0.00 92 1014.3
20260504204005 64 159 0.0 1.0 0.00 0.02 0.00 92 1014.3
20260504203905 64 157 0.0 1.0 0.00 0.02 0.00 92 1014.3
20260504203706 64 148 0.0 1.0 0.00 0.02 0.00 92 1014.5
20260504203605 64 131 0.0 1.0 0.00 0.02 0.00 92 1014.3
20260504203519 64 131 0.0 1.0 0.00 0.02 0.00 92 1014.4
20260504203504 64 129 0.0 1.0 0.00 0.02 0.00 92 1014.4
20260504203406 64 114 0.0 1.0 0.00 0.02 0.00 92 1014.3
20260504203318 64 117 0.0 1.0 0.00 0.02 0.00 92 1014.4
20260504203205 64 122 0.0 1.0 0.00 0.02 0.00 92 1014.5
20260504202918 64 150 0.0 1.0 0.00 0.02 0.00 92 1014.4
20260504202906 64 155 0.0 1.0 0.00 0.02 0.00 92 1014.4
20260504202805 64 166 0.0 1.0 0.00 0.02 0.00 92 1014.4
20260504202720 64 169 0.0 1.0 0.00 0.02 0.00 92 1014.2
20260504202605 64 169 0.0 1.0 0.00 0.02 0.00 92 1014.3
20260504202405 64 169 0.0 1.0 0.00 0.02 0.00 92 1014.5
20260504202305 64 181 0.0 1.0 0.00 0.02 0.00 92 1014.2
20260504202205 64 181 0.0 1.0 0.00 0.02 0.00 92 1014.4
20260504202105 64 181 0.0 1.0 0.00 0.02 0.00 92 1014.3
20260504202006 64 181 0.0 1.0 0.00 0.02 0.00 92 1014.4
20260504201906 64 181 0.0 1.0 0.00 0.02 0.00 92 1014.3
20260504201821 64 181 0.0 1.0 0.00 0.02 0.00 92 1014.0
20260504201705 64 181 0.0 1.0 0.00 0.02 0.00 92 1014.2
20260504201505 64 181 0.0 1.0 0.00 0.02 0.00 92 1014.2
20260504201405 64 181 0.0 1.0 0.00 0.02 0.00 92 1014.3
20260504201204 64 181 0.0 1.0 0.00 0.02 0.00 92 1014.1
20260504201106 64 181 0.0 1.0 0.00 0.02 0.00 92 1014.3
20260504201005 64 181 0.0 1.0 0.00 0.02 0.00 92 1014.0
20260504200905 64 181 0.0 1.0 0.00 0.02 0.00 92 1014.1
20260504200804 64 0 0.0 0.0 0.00 0.02 0.00 92 1014.2
20260504200706 64 181 0.0 1.0 0.00 0.02 0.00 92 1014.3
20260504200605 64 181 0.0 1.0 0.00 0.02 0.00 92 1014.4
20260504200506 64 181 0.0 1.0 0.00 0.02 0.00 92 1014.1
20260504200405 64 181 0.0 1.0 0.00 0.02 0.00 92 1014.1
20260504200305 64 181 0.0 1.0 0.00 0.02 0.00 92 1014.2
20260504200205 64 181 0.0 1.0 0.00 0.02 0.00 92 1014.2
20260504200105 64 181 0.0 3.0 0.00 0.02 0.00 92 1014.1
20260504200004 64 180 0.0 3.0 0.00 0.02 0.00 92 1013.9
20260504195904 64 180 0.0 3.0 0.00 0.02 0.00 92 1014.1
20260504195705 64 189 0.0 3.0 0.00 0.02 0.00 92 1014.0
20260504195606 64 200 1.0 3.0 0.00 0.02 0.00 92 1014.2
20260504195506 64 205 1.0 3.0 0.00 0.02 0.00 92 1014.0
20260504195406 64 208 0.0 3.0 0.00 0.02 0.00 92 1014.2
20260504195305 64 211 0.0 3.0 0.00 0.02 0.00 92 1014.1
20260504195205 64 214 0.0 3.0 0.00 0.02 0.00 92 1013.8
20260504195119 64 222 0.0 3.0 0.00 0.02 0.00 92 1014.2
20260504195105 64 229 0.0 2.0 0.00 0.02 0.00 92 1014.2
20260504195005 64 234 0.0 2.0 0.00 0.02 0.00 92 1014.0
20260504194920 64 234 0.0 2.0 0.00 0.02 0.00 92 1013.9
20260504194806 64 234 0.0 3.0 0.00 0.02 0.00 92 1014.1
20260504194606 64 224 0.0 3.0 0.00 0.02 0.00 92 1014.0
20260504194505 64 218 1.0 3.0 0.00 0.02 0.00 92 1014.1
20260504194404 64 212 1.0 3.0 0.00 0.02 0.00 92 1014.0
20260504194306 64 210 1.0 3.0 0.00 0.02 0.00 92 1014.0
20260504194206 64 210 1.0 3.0 0.00 0.02 0.00 92 1014.2
20260504194106 64 210 1.0 3.0 0.00 0.02 0.00 92 1014.0
20260504194005 64 210 1.0 3.0 0.00 0.02 0.00 92 1013.8
20260504193906 64 208 1.0 3.0 0.00 0.02 0.00 92 1014.0
20260504193804 64 201 1.0 3.0 0.00 0.02 0.00 92 1013.8
20260504193706 64 195 0.0 2.0 0.00 0.02 0.00 92 1014.0
20260504193605 64 194 0.0 2.0 0.00 0.02 0.00 92 1014.0
20260504193404 64 194 0.0 1.0 0.00 0.02 0.00 92 1014.2
20260504193306 64 194 0.0 1.0 0.00 0.02 0.00 92 1014.2
20260504193206 64 194 0.0 1.0 0.00 0.02 0.00 92 1014.1
20260504193106 64 194 0.0 2.0 0.00 0.02 0.00 92 1014.1
20260504193006 64 194 0.0 2.0 0.00 0.02 0.00 92 1014.2
20260504192905 64 194 0.0 2.0 0.00 0.02 0.00 92 1014.2
20260504192806 64 194 0.0 2.0 0.00 0.02 0.00 92 1014.1
20260504192705 64 194 0.0 2.0 0.00 0.02 0.00 92 1014.0
20260504192606 64 193 0.0 2.0 0.00 0.02 0.00 92 1014.1
20260504192506 64 197 1.0 2.0 0.00 0.02 0.00 92 1014.0
20260504192406 64 200 1.0 2.0 0.00 0.02 0.00 92 1014.1
20260504192220 64 201 1.0 2.0 0.00 0.02 0.00 92 1014.1
20260504192206 64 202 1.0 2.0 0.00 0.02 0.00 92 1014.1
20260504192106 64 205 1.0 2.0 0.00 0.02 0.00 92 1014.0
20260504191906 64 207 1.0 2.0 0.00 0.02 0.00 92 1014.0
20260504191806 64 204 1.0 3.0 0.00 0.02 0.00 92 1014.1
20260504191706 64 206 1.0 4.0 0.00 0.02 0.00 92 1014.0
20260504191620 64 216 1.0 4.0 0.00 0.02 0.00 92 1013.9
20260504191605 64 217 1.0 4.0 0.00 0.02 0.00 92 1013.9
20260504191506 64 216 1.0 4.0 0.00 0.02 0.00 92 1014.2
20260504191306 64 216 1.0 4.0 0.00 0.02 0.00 92 1014.0
20260504191205 64 211 1.0 4.0 0.00 0.02 0.00 92 1013.9
20260504191006 64 206 1.0 4.0 0.00 0.02 0.00 92 1014.0
20260504190905 64 202 1.0 4.0 0.00 0.02 0.00 92 1014.0
20260504190804 64 204 1.0 4.0 0.00 0.02 0.00 92 1013.9
20260504190706 64 204 1.0 4.0 0.00 0.02 0.00 92 1013.8
20260504190620 64 190 1.0 4.0 0.00 0.02 0.00 92 1014.0
20260504190605 64 185 1.0 4.0 0.00 0.02 0.00 92 1014.0
20260504190506 64 185 0.0 2.0 0.00 0.02 0.00 91 1014.1
20260504190307 64 185 0.0 2.0 0.00 0.02 0.00 92 1014.0
20260504190206 64 190 0.0 2.0 0.00 0.02 0.00 92 1013.8
20260504190106 64 189 0.0 2.0 0.00 0.02 0.00 92 1013.9
20260504185906 64 207 0.0 2.0 0.00 0.02 0.00 92 1013.7
20260504185805 64 217 0.0 2.0 0.00 0.02 0.00 92 1013.6
20260504185705 64 222 0.0 2.0 0.00 0.02 0.00 92 1013.7
20260504185606 64 228 0.0 2.0 0.00 0.02 0.00 92 1013.9
20260504185506 64 232 0.0 2.0 0.00 0.02 0.00 91 1013.6
20260504185406 64 233 0.0 2.0 0.00 0.02 0.00 91 1013.9
20260504185306 64 234 0.0 2.0 0.00 0.02 0.00 91 1013.8
20260504185218 64 237 0.0 2.0 0.00 0.02 0.00 91 1013.9
20260504185205 64 238 0.0 2.0 0.00 0.02 0.00 91 1013.9
20260504185106 64 240 0.0 2.0 0.00 0.02 0.00 91 1013.8
20260504184904 64 243 0.0 2.0 0.00 0.02 0.00 91 1013.8
20260504184806 64 247 0.0 2.0 0.00 0.02 0.00 91 1013.7
20260504184706 64 247 0.0 2.0 0.00 0.02 0.00 91 1013.6
20260504184605 64 247 0.0 2.0 0.00 0.02 0.00 91 1013.9
20260504184504 64 248 0.0 2.0 0.00 0.02 0.00 91 1013.8
20260504184406 64 248 0.0 2.0 0.00 0.02 0.00 91 1013.6
20260504184306 64 249 0.0 2.0 0.00 0.02 0.00 91 1013.7
20260504184220 64 251 0.0 2.0 0.00 0.02 0.00 92 1013.7
20260504183905 64 0 0.0 0.0 0.00 0.02 0.00 92 1013.6
20260504183805 64 0 0.0 0.0 0.00 0.02 0.00 92 1013.6
20260504183705 64 0 0.0 0.0 0.00 0.02 0.00 91 1013.7
20260504183604 64 0 0.0 0.0 0.00 0.02 0.00 91 1013.7
20260504183505 64 0 0.0 0.0 0.00 0.02 0.00 92 1013.9
20260504183405 64 0 0.0 0.0 0.00 0.02 0.00 91 1013.7
20260504183320 64 0 0.0 0.0 0.00 0.02 0.00 92 1013.6
20260504183305 64 253 0.0 1.0 0.00 0.02 0.00 92 1013.6
20260504183205 64 253 0.0 1.0 0.00 0.02 0.00 91 1013.9
20260504183006 64 254 0.0 2.0 0.00 0.02 0.00 91 1013.6
20260504182905 64 254 0.0 2.0 0.00 0.02 0.00 91 1013.6
20260504182806 64 254 0.0 2.0 0.00 0.02 0.00 91 1013.6
20260504182605 64 253 0.0 2.0 0.00 0.02 0.00 91 1013.6
20260504182505 64 253 0.0 2.0 0.00 0.02 0.00 91 1013.6
20260504182405 64 253 0.0 2.0 0.00 0.02 0.00 91 1013.6
20260504182305 64 253 0.0 2.0 0.00 0.02 0.00 91 1013.7
20260504182204 64 253 0.0 2.0 0.00 0.02 0.00 91 1013.5
20260504182106 64 253 0.0 1.0 0.00 0.02 0.00 91 1013.6
20260504182005 64 253 0.0 1.0 0.00 0.02 0.00 91 1013.6
20260504181905 64 253 0.0 1.0 0.00 0.02 0.00 91 1013.4
20260504181806 64 257 0.0 1.0 0.00 0.02 0.00 91 1013.5
20260504181721 64 258 0.0 1.0 0.00 0.02 0.00 91 1013.5
20260504181705 64 259 0.0 1.0 0.00 0.02 0.00 91 1013.5
20260504181605 64 261 0.0 1.0 0.00 0.02 0.00 91 1013.5
20260504181405 64 263 0.0 1.0 0.00 0.02 0.00 91 1013.4
20260504181305 64 265 0.0 1.0 0.00 0.02 0.00 91 1013.4
20260504181206 64 265 0.0 1.0 0.00 0.02 0.00 91 1013.4
20260504181106 64 265 0.0 1.0 0.00 0.02 0.00 91 1013.7
20260504181005 64 265 0.0 1.0 0.00 0.02 0.00 91 1013.5
20260504180905 64 265 0.0 2.0 0.00 0.02 0.00 91 1013.4
20260504180820 64 266 0.0 2.0 0.00 0.02 0.00 91 1013.6
20260504180704 64 267 0.0 2.0 0.00 0.02 0.00 91 1013.3
20260504180506 64 268 0.0 2.0 0.00 0.02 0.00 91 1013.4
20260504180405 64 269 0.0 2.0 0.00 0.02 0.00 91 1013.5
20260504180305 64 269 0.0 2.0 0.00 0.02 0.00 91 1013.4
20260504180205 64 270 0.0 2.0 0.00 0.02 0.00 91 1013.6
20260504180105 64 271 0.0 2.0 0.00 0.02 0.00 91 1013.5
20260504180006 64 272 1.0 2.0 0.00 0.02 0.00 91 1013.5
20260504175906 64 273 1.0 2.0 0.00 0.02 0.00 91 1013.2
20260504175805 64 274 0.0 2.0 0.00 0.02 0.00 91 1013.5
20260504175706 64 274 0.0 2.0 0.00 0.02 0.00 91 1013.6
20260504175606 64 274 0.0 2.0 0.00 0.02 0.00 91 1013.5
20260504175506 64 274 0.0 2.0 0.00 0.02 0.00 91 1013.5
20260504175406 64 274 0.0 2.0 0.00 0.02 0.00 91 1013.4
20260504175306 64 274 0.0 2.0 0.00 0.02 0.00 91 1013.5
20260504175106 64 274 0.0 2.0 0.00 0.02 0.00 91 1013.4
20260504175006 64 274 0.0 1.0 0.00 0.02 0.00 91 1013.4
20260504174905 64 0 0.0 0.0 0.00 0.02 0.00 91 1013.5
20260504174805 64 0 0.0 0.0 0.00 0.02 0.00 91 1013.3
20260504174706 64 0 0.0 0.0 0.00 0.02 0.00 91 1013.4
20260504174406 64 0 0.0 0.0 0.00 0.02 0.00 91 1013.3
20260504174305 64 0 0.0 0.0 0.00 0.02 0.00 91 1013.2
20260504174206 64 0 0.0 0.0 0.00 0.02 0.00 91 1013.5
20260504174107 64 0 0.0 0.0 0.00 0.02 0.00 91 1013.0
20260504174006 64 0 0.0 0.0 0.00 0.02 0.00 91 1013.2
20260504173906 64 0 0.0 0.0 0.00 0.02 0.00 91 1013.0
20260504173804 64 0 0.0 0.0 0.00 0.02 0.00 91 1013.0
20260504173706 64 273 0.0 1.0 0.00 0.02 0.00 91 1013.0
20260504173605 64 273 0.0 1.0 0.00 0.02 0.00 91 1013.2
20260504173505 64 273 0.0 1.0 0.00 0.02 0.00 91 1013.2
20260504173404 64 273 0.0 1.0 0.00 0.02 0.00 91 1013.1
20260504173205 64 273 0.0 1.0 0.00 0.02 0.00 91 1013.3
20260504173106 64 273 0.0 1.0 0.00 0.02 0.00 91 1013.2
20260504173006 65 273 0.0 1.0 0.00 0.02 0.00 91 1013.4
20260504172906 65 273 0.0 1.0 0.00 0.02 0.00 91 1013.4
20260504172805 65 273 0.0 1.0 0.00 0.02 0.00 91 1013.3
20260504172706 64 0 0.0 0.0 0.00 0.02 0.00 91 1013.2
20260504172606 65 0 0.0 0.0 0.00 0.02 0.00 91 1013.1
20260504172506 65 0 0.0 0.0 0.00 0.02 0.00 91 1013.2
20260504172405 65 0 0.0 0.0 0.00 0.02 0.00 91 1013.2
20260504172306 65 0 0.0 0.0 0.00 0.02 0.00 91 1013.4
20260504172207 65 0 0.0 0.0 0.00 0.02 0.00 91 1013.3
20260504172106 65 0 0.0 0.0 0.00 0.02 0.00 91 1013.4
20260504172005 65 0 0.0 0.0 0.00 0.02 0.00 91 1013.4
20260504171906 65 0 0.0 0.0 0.00 0.02 0.00 91 1013.2
20260504171805 65 0 0.0 0.0 0.00 0.02 0.00 91 1013.2
20260504171706 65 0 0.0 0.0 0.00 0.02 0.00 91 1013.2
20260504171606 65 0 0.0 0.0 0.00 0.02 0.00 91 1013.3
20260504171520 65 0 0.0 0.0 0.00 0.02 0.00 91 1013.1
20260504171405 65 0 0.0 0.0 0.00 0.02 0.00 91 1013.4
20260504171106 65 0 0.0 0.0 0.00 0.02 0.00 91 1013.1
20260504171006 65 0 0.0 0.0 0.00 0.02 0.00 91 1013.2
20260504170906 65 0 0.0 0.0 0.00 0.02 0.00 91 1013.2
20260504170805 64 0 0.0 0.0 0.00 0.02 0.00 91 1013.1
20260504170706 65 0 0.0 0.0 0.00 0.02 0.00 91 1013.3
20260504170605 64 0 0.0 0.0 0.00 0.02 0.00 91 1013.3
20260504170505 65 0 0.0 0.0 0.00 0.02 0.00 91 1013.1
20260504170406 65 0 0.0 0.0 0.00 0.02 0.00 91 1013.2
20260504170306 64 0 0.0 0.0 0.00 0.02 0.00 91 1013.3
20260504170106 64 273 0.0 1.0 0.00 0.02 0.00 91 1013.1
20260504160405 65 140 0.0 1.0 0.00 0.02 0.00 90 1013.8
20260504160304 65 140 0.0 1.0 0.00 0.02 0.00 90 1013.6
20260504160205 65 140 0.0 1.0 0.00 0.02 0.00 90 1013.5
20260504160106 65 140 0.0 1.0 0.00 0.02 0.00 90 1013.6
20260504151106 66 145 0.0 2.0 0.00 0.06 0.00 91 1014.0
20260504151006 66 154 0.0 2.0 0.00 0.06 0.00 91 1014.2
20260504150921 66 146 0.0 2.0 0.00 0.06 0.00 91 1014.1
20260504150907 66 141 0.0 2.0 0.00 0.06 0.00 91 1014.1
20260504150806 66 130 1.0 2.0 0.00 0.06 0.00 91 1014.1
20260504150604 66 110 1.0 3.0 0.00 0.06 0.00 91 1014.1
20260504150506 66 105 1.0 3.0 0.00 0.06 0.00 91 1014.2
20260504150406 66 101 1.0 3.0 0.00 0.06 0.00 91 1014.3
20260504150306 66 96 1.0 3.0 0.00 0.06 0.00 91 1014.2
20260504150205 66 88 1.0 3.0 0.00 0.06 0.00 91 1014.3
20260504150106 66 87 1.0 3.0 0.00 0.06 0.00 91 1014.4
20260504141306 66 79 0.0 1.0 0.00 0.06 0.00 90 1014.5
20260504141206 66 79 0.0 2.0 0.00 0.06 0.00 90 1014.5
20260504141104 66 79 0.0 2.0 0.00 0.06 0.00 90 1014.4
20260504141006 66 79 0.0 2.0 0.00 0.06 0.00 90 1014.4
20260504140906 66 79 0.0 2.0 0.00 0.06 0.00 90 1014.5
20260504140805 66 79 1.0 2.0 0.00 0.06 0.00 90 1014.5
20260504140704 66 79 1.0 2.0 0.00 0.06 0.00 90 1014.6
20260504140606 66 79 1.0 2.0 0.00 0.06 0.00 90 1014.7
20260504140506 66 79 1.0 2.0 0.00 0.06 0.00 90 1014.7
20260504140406 66 79 1.0 2.0 0.00 0.06 0.00 90 1014.8
20260504140306 66 79 1.0 2.0 0.00 0.06 0.00 90 1014.7
20260504140206 66 79 1.0 2.0 0.00 0.06 0.00 90 1014.7
20260504140106 66 79 0.0 1.0 0.00 0.06 0.00 90 1014.6
20260504130805 66 0 0.0 0.0 0.00 0.11 0.00 89 1015.1
20260504130704 66 0 0.0 0.0 0.00 0.11 0.00 89 1014.9
20260504130606 66 0 0.0 0.0 0.00 0.11 0.00 89 1015.0
20260504130505 66 0 0.0 0.0 0.00 0.11 0.00 89 1015.1
20260504130405 66 0 0.0 0.0 0.00 0.11 0.00 89 1014.9
20260504130205 66 0 0.0 0.0 0.00 0.11 0.00 89 1015.1
20260504130105 66 0 0.0 0.0 0.00 0.11 0.00 89 1015.0
20260504120306 67 88 1.0 2.0 0.00 0.11 0.00 88 1015.5
20260504120205 67 90 1.0 2.0 0.00 0.11 0.00 88 1015.3
20260504120107 67 93 0.0 2.0 0.00 0.11 0.00 88 1015.4
20260504110720 68 71 1.0 4.0 0.00 0.11 0.00 89 1015.5
20260504110706 68 70 1.0 4.0 0.00 0.11 0.00 89 1015.5
20260504110606 68 65 1.0 4.0 0.00 0.11 0.00 89 1015.5
20260504110406 68 56 1.0 4.0 0.00 0.11 0.00 89 1015.6
20260504110306 68 55 1.0 4.0 0.00 0.11 0.00 89 1015.6
20260504110206 68 55 1.0 4.0 0.00 0.11 0.00 88 1015.6
20260504110106 68 60 1.0 4.0 0.00 0.11 0.00 88 1015.7
20260504100604 69 88 0.0 2.0 0.00 0.11 0.00 88 1015.5
20260504100506 69 84 0.0 2.0 0.00 0.11 0.00 88 1015.5
20260504100404 69 77 0.0 2.0 0.00 0.11 0.00 88 1015.3
20260504100306 69 74 0.0 2.0 0.00 0.11 0.00 88 1015.5
20260504100206 69 70 0.0 2.0 0.00 0.11 0.00 88 1015.4
20260504100106 69 71 0.0 3.0 0.00 0.11 0.00 88 1015.3
20260504090106 69 82 2.0 6.0 0.00 0.11 0.00 87 1015.2
20260504082005 69 79 1.0 6.0 0.00 0.11 0.00 87 1014.6
20260504081904 69 77 1.0 6.0 0.00 0.11 0.00 87 1014.8
20260504081819 69 75 1.0 6.0 0.00 0.11 0.00 87 1014.7
20260504081806 69 74 1.0 6.0 0.00 0.11 0.00 87 1014.7
20260504081705 69 76 1.0 6.0 0.00 0.11 0.00 87 1014.8
20260504081521 69 77 1.0 6.0 0.00 0.11 0.00 87 1014.7
20260504081504 69 76 1.0 6.0 0.00 0.11 0.00 87 1014.7
20260504081405 69 81 1.0 6.0 0.00 0.11 0.00 87 1014.4
20260504081320 69 84 1.0 4.0 0.00 0.11 0.00 87 1014.3
20260504081205 69 86 1.0 4.0 0.00 0.11 0.00 87 1014.5
20260504081005 70 91 1.0 4.0 0.00 0.11 0.00 87 1014.6
20260504080905 69 92 1.0 4.0 0.00 0.11 0.00 86 1014.3
20260504080805 69 91 1.0 4.0 0.00 0.11 0.00 86 1014.4
20260504080719 69 89 1.0 4.0 0.00 0.11 0.00 86 1014.3
20260504080705 70 89 1.0 4.0 0.00 0.11 0.00 86 1014.3
20260504080606 70 92 1.0 4.0 0.00 0.11 0.00 86 1014.3
20260504080406 70 89 1.0 4.0 0.00 0.11 0.00 86 1014.6
20260504080305 70 86 1.0 4.0 0.00 0.11 0.00 86 1014.6
20260504080205 70 85 1.0 4.0 0.00 0.11 0.00 86 1014.4
20260504080105 70 83 1.0 4.0 0.00 0.11 0.00 86 1014.2
20260504070406 71 89 0.0 2.0 0.00 0.11 0.00 85 1014.2
20260504070304 71 89 1.0 2.0 0.00 0.11 0.00 85 1014.3
20260504070204 72 89 1.0 2.0 0.00 0.11 0.00 85 1014.0
20260504070104 72 90 1.0 2.0 0.00 0.11 0.00 85 1014.2
20260504060205 73 98 1.0 3.0 0.00 0.11 0.00 85 1013.7
20260504060105 73 97 1.0 3.0 0.00 0.11 0.00 85 1013.8
20260504050606 74 133 1.0 4.0 0.00 0.10 0.00 85 1013.8
20260504050506 74 140 1.0 4.0 0.00 0.10 0.00 85 1013.7
20260504050420 74 155 1.0 4.0 0.00 0.10 0.00 85 1013.9
20260504050405 74 160 1.0 4.0 0.00 0.10 0.00 85 1013.9
20260504050306 74 182 1.0 3.0 0.00 0.10 0.00 84 1013.8
20260504050219 74 188 1.0 3.0 0.00 0.10 0.00 85 1013.7
20260504050105 74 193 1.0 3.0 0.00 0.10 0.00 85 1013.9
20260504045905 74 195 1.0 3.0 0.00 0.10 0.00 84 1013.7
20260504045819 74 196 1.0 3.0 0.00 0.10 0.00 84 1013.7
20260504045806 74 197 1.0 3.0 0.00 0.10 0.00 84 1013.7
20260504045706 74 197 1.0 3.0 0.00 0.10 0.00 84 1013.8
20260504045506 74 190 1.0 3.0 0.00 0.10 0.00 85 1013.9
20260504045406 74 182 1.0 3.0 0.00 0.10 0.00 85 1013.8
20260504045305 74 176 1.0 2.0 0.00 0.10 0.00 85 1013.8
20260504045205 74 176 1.0 2.0 0.00 0.10 0.00 85 1013.6
20260504045119 74 182 1.0 2.0 0.00 0.10 0.00 85 1013.7
20260504045106 74 184 1.0 2.0 0.00 0.10 0.00 85 1013.7
20260504045007 74 188 1.0 2.0 0.00 0.10 0.00 85 1013.8
20260504044806 75 203 1.0 2.0 0.00 0.10 0.00 85 1013.8
20260504044705 75 206 1.0 2.0 0.00 0.10 0.00 85 1014.1
20260504044620 75 211 1.0 2.0 0.00 0.10 0.00 85 1013.6
20260504044605 75 213 1.0 2.0 0.00 0.10 0.00 85 1013.6
20260504044505 75 219 1.0 2.0 0.00 0.10 0.00 85 1013.9
20260504044305 75 228 1.0 2.0 0.00 0.10 0.00 85 1013.8
20260504044206 75 221 1.0 4.0 0.00 0.10 0.00 85 1013.8
20260504044106 75 212 1.0 4.0 0.00 0.10 0.00 85 1013.8
20260504044020 75 204 1.0 4.0 0.00 0.10 0.00 85 1013.7
20260504044006 75 202 1.0 4.0 0.00 0.10 0.00 85 1013.7
20260504043906 75 180 1.0 4.0 0.00 0.10 0.00 85 1013.8
20260504043706 75 156 1.0 4.0 0.00 0.10 0.00 85 1013.7
20260504043606 75 151 1.0 4.0 0.00 0.10 0.00 85 1013.8
20260504043505 75 146 1.0 4.0 0.00 0.10 0.00 85 1013.8
20260504043405 75 136 1.0 4.0 0.00 0.10 0.00 85 1013.9
20260504043320 75 129 1.0 4.0 0.00 0.10 0.00 85 1013.9
20260504043306 75 126 1.0 4.0 0.00 0.10 0.00 85 1013.9
20260504043206 75 107 1.0 4.0 0.00 0.10 0.00 85 1013.8
20260504043020 75 106 1.0 4.0 0.00 0.10 0.00 85 1013.7
20260504043006 75 105 1.0 4.0 0.00 0.10 0.00 85 1013.7
20260504042906 75 101 1.0 4.0 0.00 0.10 0.00 85 1013.9
20260504042621 75 108 1.0 4.0 0.00 0.10 0.00 86 1013.8
20260504042605 75 110 1.0 4.0 0.00 0.10 0.00 86 1013.8
20260504042505 75 111 2.0 4.0 0.00 0.10 0.00 86 1013.7
20260504042305 75 132 2.0 4.0 0.00 0.10 0.00 86 1013.6
20260504042205 75 219 2.0 4.0 0.00 0.10 0.00 86 1013.8
20260504042119 75 259 2.0 4.0 0.00 0.10 0.00 86 1013.8
20260504042106 75 262 2.0 4.0 0.00 0.10 0.00 86 1013.8
20260504042006 75 253 2.0 4.0 0.00 0.10 0.00 86 1013.6
20260504041806 74 254 1.0 4.0 0.00 0.10 0.00 86 1013.8
20260504041706 74 251 1.0 4.0 0.00 0.10 0.00 86 1013.9
20260504041606 74 256 1.0 4.0 0.00 0.10 0.00 86 1013.8
20260504041506 74 249 1.0 4.0 0.00 0.10 0.00 86 1013.7
20260504041406 74 232 1.0 4.0 0.00 0.10 0.00 86 1013.9
20260504041306 74 225 1.0 4.0 0.00 0.10 0.00 86 1013.8
20260504041205 74 210 1.0 4.0 0.00 0.10 0.00 86 1013.9
20260504041106 74 190 1.0 3.0 0.00 0.10 0.00 86 1013.7
20260504041006 74 188 1.0 2.0 0.00 0.10 0.00 86 1013.8
20260504040905 74 189 1.0 2.0 0.00 0.10 0.00 86 1013.8
20260504040805 74 189 1.0 2.0 0.00 0.10 0.00 86 1014.0
20260504040705 74 189 1.0 2.0 0.00 0.10 0.00 86 1013.9
20260504040605 74 190 1.0 2.0 0.00 0.10 0.00 86 1014.0
20260504040505 74 190 1.0 2.0 0.00 0.10 0.00 86 1014.0
20260504040405 74 190 1.0 2.0 0.00 0.10 0.00 86 1014.0
20260504040305 74 190 1.0 2.0 0.00 0.10 0.00 86 1013.9
20260504040205 74 190 1.0 2.0 0.00 0.10 0.00 86 1013.8
20260504040006 74 190 1.0 2.0 0.00 0.10 0.00 86 1013.9
20260504035905 74 190 1.0 2.0 0.00 0.10 0.00 86 1013.8
20260504035805 74 191 1.0 3.0 0.00 0.10 0.00 86 1013.9
20260504035706 74 191 1.0 3.0 0.00 0.10 0.00 86 1013.9
20260504035606 74 192 1.0 3.0 0.00 0.10 0.00 86 1014.0
20260504035506 74 193 1.0 3.0 0.00 0.10 0.00 86 1014.1
20260504035405 74 194 1.0 3.0 0.00 0.10 0.00 86 1013.8
20260504035205 74 196 1.0 3.0 0.00 0.10 0.00 86 1013.9
20260504035106 74 196 1.0 3.0 0.00 0.10 0.00 86 1013.8
20260504035006 74 197 1.0 3.0 0.00 0.10 0.00 86 1014.3
20260504034906 74 198 1.0 3.0 0.00 0.10 0.00 86 1014.0
20260504034806 74 199 1.0 3.0 0.00 0.10 0.00 86 1014.1
20260504034705 74 200 1.0 2.0 0.00 0.10 0.00 86 1014.0
20260504034620 74 200 1.0 2.0 0.00 0.10 0.00 86 1014.0
20260504034605 74 200 1.0 2.0 0.00 0.10 0.00 86 1014.0
20260504034505 74 200 0.0 2.0 0.00 0.10 0.00 86 1013.9
20260504034421 74 200 0.0 2.0 0.00 0.10 0.00 86 1013.8
20260504034304 74 200 0.0 2.0 0.00 0.10 0.00 86 1013.9
20260504034220 74 200 0.0 1.0 0.00 0.10 0.00 86 1014.2
20260504034106 74 200 0.0 3.0 0.00 0.10 0.00 86 1013.9
20260504034020 74 210 0.0 4.0 0.00 0.10 0.00 86 1014.0
20260504033906 74 208 1.0 4.0 0.00 0.10 0.00 86 1014.1
20260504033821 74 206 1.0 4.0 0.00 0.10 0.00 86 1013.9
20260504033706 74 201 1.0 4.0 0.00 0.10 0.00 86 1014.0
20260504033620 74 198 1.0 4.0 0.00 0.10 0.00 86 1014.1
20260504033506 74 192 1.0 4.0 0.00 0.10 0.00 86 1014.1
20260504033320 74 193 2.0 4.0 0.00 0.10 0.00 86 1014.2
20260504033306 74 194 2.0 4.0 0.00 0.10 0.00 86 1014.2
20260504033205 74 195 2.0 4.0 0.00 0.10 0.00 86 1014.2
20260504033005 75 191 1.0 3.0 0.00 0.10 0.00 86 1014.1
20260504032905 75 195 2.0 6.0 0.00 0.10 0.00 86 1014.3
20260504032806 75 196 2.0 6.0 0.00 0.10 0.00 86 1014.0
20260504032706 75 198 2.0 6.0 0.00 0.10 0.00 86 1014.2
20260504032605 75 201 2.0 6.0 0.00 0.10 0.00 86 1014.2
20260504032506 75 198 2.0 6.0 0.00 0.10 0.00 86 1014.0
20260504032406 75 193 1.0 6.0 0.00 0.10 0.00 86 1014.0
20260504032305 75 193 1.0 6.0 0.00 0.10 0.00 86 1014.2
20260504032205 75 196 1.0 6.0 0.00 0.10 0.00 86 1014.2
20260504032020 75 192 2.0 6.0 0.00 0.10 0.00 86 1014.2
20260504032006 75 190 2.0 6.0 0.00 0.10 0.00 86 1014.2
20260504031906 75 183 2.0 6.0 0.00 0.10 0.00 87 1014.1
20260504031720 75 174 1.0 6.0 0.00 0.10 0.00 87 1014.1
20260504031705 75 173 1.0 6.0 0.00 0.10 0.00 87 1014.1
20260504031605 75 171 1.0 6.0 0.00 0.10 0.00 86 1014.5
20260504031406 75 178 1.0 6.0 0.00 0.10 0.00 86 1014.4
20260504031304 75 176 1.0 6.0 0.00 0.10 0.00 86 1014.2
20260504031205 75 170 1.0 6.0 0.00 0.10 0.00 86 1014.1
20260504031105 75 168 1.0 4.0 0.00 0.10 0.00 86 1014.3
20260504031020 75 173 1.0 4.0 0.00 0.10 0.00 86 1014.3
20260504031004 75 176 1.0 4.0 0.00 0.10 0.00 86 1014.3
20260504030905 75 181 2.0 4.0 0.00 0.10 0.00 87 1014.2
20260504030706 75 192 1.0 4.0 0.00 0.10 0.00 87 1014.2
20260504030605 75 202 2.0 4.0 0.00 0.10 0.00 87 1014.5
20260504030505 75 214 2.0 4.0 0.00 0.10 0.00 86 1014.5
20260504030405 75 218 2.0 6.0 0.00 0.10 0.00 86 1014.7
20260504030305 76 217 2.0 6.0 0.00 0.10 0.00 86 1014.5
20260504030206 76 219 2.0 6.0 0.00 0.10 0.00 87 1014.5
20260504030121 76 224 3.0 6.0 0.00 0.10 0.00 87 1014.7
20260504030106 76 225 2.0 6.0 0.00 0.10 0.00 87 1014.7
20260504030005 76 228 2.0 6.0 0.00 0.10 0.00 87 1014.6
20260504025920 76 233 2.0 6.0 0.00 0.10 0.00 87 1014.5
20260504025821 76 236 3.0 7.0 0.00 0.10 0.00 87 1014.7
20260504025805 76 237 3.0 7.0 0.00 0.10 0.00 87 1014.7
20260504025618 76 233 3.0 8.0 0.00 0.10 0.00 86 1014.4
20260504025506 76 233 3.0 8.0 0.00 0.10 0.00 87 1014.5
20260504025306 76 244 3.0 8.0 0.00 0.10 0.00 87 1014.6
20260504025206 76 250 3.0 8.0 0.00 0.10 0.00 87 1014.4
20260504025106 76 253 3.0 8.0 0.00 0.10 0.00 87 1014.5
20260504025005 76 255 3.0 8.0 0.00 0.10 0.00 87 1014.5
20260504024906 76 251 3.0 8.0 0.00 0.10 0.00 87 1014.5
20260504024806 76 252 3.0 8.0 0.00 0.10 0.00 88 1014.4
20260504024705 76 252 3.0 8.0 0.00 0.10 0.00 87 1014.7
20260504024605 76 257 3.0 8.0 0.00 0.10 0.00 87 1014.5
20260504024520 76 260 3.0 8.0 0.00 0.10 0.00 87 1014.6
20260504024505 76 260 3.0 8.0 0.00 0.10 0.00 87 1014.6
20260504024405 76 258 2.0 8.0 0.00 0.10 0.00 87 1014.7
20260504024206 76 273 2.0 7.0 0.00 0.10 0.00 88 1014.5
20260504024106 76 278 2.0 7.0 0.00 0.10 0.00 88 1014.7
20260504024005 76 291 2.0 7.0 0.00 0.10 0.00 88 1014.7
20260504023920 76 306 1.0 6.0 0.00 0.10 0.00 88 1014.6
20260504023906 76 309 1.0 6.0 0.00 0.10 0.00 88 1014.6
20260504023806 76 313 1.0 3.0 0.00 0.10 0.00 88 1014.9
20260504023719 76 319 1.0 3.0 0.00 0.10 0.00 88 1014.6
20260504023605 75 317 1.0 3.0 0.00 0.10 0.00 88 1014.8
20260504023406 75 315 1.0 3.0 0.00 0.10 0.00 88 1014.9
20260504023306 75 315 1.0 3.0 0.00 0.10 0.00 88 1014.7
20260504023206 75 319 1.0 3.0 0.00 0.10 0.00 88 1014.8
20260504023106 75 334 1.0 4.0 0.00 0.10 0.00 88 1014.8
20260504023006 75 357 1.0 4.0 0.00 0.10 0.00 88 1014.8
20260504022905 75 16 1.0 4.0 0.00 0.10 0.00 88 1014.9
20260504022820 75 29 2.0 4.0 0.00 0.10 0.00 88 1014.8
20260504022805 75 32 2.0 4.0 0.00 0.10 0.00 88 1014.8
20260504022706 75 45 2.0 4.0 0.00 0.10 0.00 89 1015.1
20260504022504 75 69 2.0 4.0 0.00 0.10 0.00 89 1015.2
20260504022404 75 70 2.0 4.0 0.00 0.10 0.00 89 1015.2
20260504022321 75 71 2.0 4.0 0.00 0.10 0.00 89 1015.0
20260504022305 75 72 2.0 4.0 0.00 0.10 0.00 89 1015.0
20260504022204 75 71 2.0 4.0 0.00 0.10 0.00 89 1015.0
20260504022121 75 70 2.0 4.0 0.00 0.10 0.00 89 1015.0
20260504022006 75 65 2.0 4.0 0.00 0.10 0.00 89 1015.1
20260504021920 75 58 1.0 4.0 0.00 0.10 0.00 89 1015.0
20260504021804 75 321 1.0 4.0 0.00 0.10 0.00 89 1015.1
20260504021606 75 291 1.0 4.0 0.00 0.10 0.00 89 1014.9
20260504021504 75 291 1.0 3.0 0.00 0.10 0.00 89 1015.1
20260504021405 75 291 1.0 4.0 0.00 0.10 0.00 89 1015.6
20260504021306 75 292 1.0 4.0 0.00 0.10 0.00 89 1015.2
20260504021220 74 293 1.0 4.0 0.00 0.10 0.00 89 1015.2
20260504021206 74 294 1.0 4.0 0.00 0.10 0.00 89 1015.2
20260504021106 74 297 1.0 4.0 0.00 0.10 0.00 89 1015.3
20260504020906 74 301 1.0 4.0 0.00 0.10 0.00 89 1015.3
20260504020805 74 306 2.0 4.0 0.00 0.10 0.00 89 1015.5
20260504020705 74 310 2.0 4.0 0.00 0.10 0.00 89 1015.5
20260504020606 74 304 2.0 4.0 0.00 0.10 0.00 89 1015.1
20260504020506 74 305 2.0 4.0 0.00 0.10 0.00 89 1015.5
20260504020406 74 306 2.0 4.0 0.00 0.10 0.00 90 1015.5
20260504020306 74 307 2.0 4.0 0.00 0.10 0.00 90 1015.4
20260504020206 74 308 1.0 4.0 0.00 0.10 0.00 90 1015.5
20260504020105 74 306 1.0 4.0 0.00 0.10 0.00 89 1015.5
20260504020006 74 305 1.0 4.0 0.00 0.10 0.00 89 1015.3
20260504015905 74 304 1.0 4.0 0.00 0.10 0.00 89 1015.4
20260504015806 74 298 1.0 4.0 0.00 0.10 0.00 90 1015.3
20260504015706 74 294 1.0 4.0 0.00 0.10 0.00 90 1015.5
20260504015606 74 303 1.0 4.0 0.00 0.10 0.00 90 1015.7
20260504015506 74 304 1.0 3.0 0.00 0.10 0.00 90 1015.7
20260504015406 74 301 1.0 3.0 0.00 0.10 0.00 90 1015.5
20260504015305 74 296 2.0 4.0 0.00 0.10 0.00 90 1015.6
20260504015205 74 294 2.0 4.0 0.00 0.10 0.00 90 1015.4
20260504015105 74 299 2.0 4.0 0.00 0.10 0.00 90 1015.7
20260504015005 74 300 2.0 4.0 0.00 0.10 0.00 90 1015.8
20260504014905 74 302 2.0 4.0 0.00 0.10 0.00 90 1015.4
20260504014805 74 304 2.0 4.0 0.00 0.10 0.00 90 1015.8
20260504014705 74 309 2.0 4.0 0.00 0.10 0.00 90 1015.7
20260504014605 74 329 2.0 4.0 0.00 0.10 0.00 90 1015.6
20260504014506 74 340 2.0 4.0 0.00 0.10 0.00 90 1015.7
20260504014406 74 350 2.0 4.0 0.00 0.10 0.00 91 1015.7